| time (UTC) | temp F | wind direction | speed knots | gust knots | rain 1hr in | rain 24hr in | rain mn in | humidity % | barometer mb |
| 20260503010050 | 52 | 124 | 6.1 | 7.8 | 0.00 | 0.20 | 0.20 | 100 | 1010.9 |
| 20260503005050 | 52 | 122 | 6.1 | 7.8 | 0.00 | 0.20 | 0.20 | 100 | 1011.0 |
| 20260503004049 | 52 | 121 | 5.2 | 7.8 | 0.00 | 0.20 | 0.20 | 100 | 1011.1 |
| 20260503003050 | 52 | 123 | 4.3 | 6.1 | 0.00 | 0.20 | 0.20 | 100 | 1011.1 |
| 20260503002049 | 52 | 125 | 4.3 | 7.0 | 0.00 | 0.20 | 0.20 | 100 | 1011.1 |
| 20260503001049 | 52 | 122 | 4.3 | 7.0 | 0.00 | 0.20 | 0.20 | 100 | 1011.2 |
| 20260503000049 | 52 | 118 | 5.2 | 7.0 | 0.00 | 0.20 | 0.20 | 100 | 1011.2 |
| 20260502235050 | 52 | 126 | 5.2 | 7.0 | 0.00 | 0.20 | 0.20 | 100 | 1011.3 |
| 20260502234109 | 52 | 127 | 5.2 | 7.8 | 0.00 | 0.20 | 0.20 | 100 | 1011.3 |
| 20260502233110 | 52 | 127 | 6.1 | 8.7 | 0.00 | 0.20 | 0.20 | 100 | 1011.4 |
| 20260502232049 | 52 | 127 | 5.2 | 7.8 | 0.00 | 0.20 | 0.20 | 100 | 1011.4 |
| 20260502231049 | 52 | 128 | 6.1 | 7.8 | 0.00 | 0.20 | 0.20 | 100 | 1011.4 |
| 20260502230129 | 52 | 132 | 6.1 | 7.0 | 0.00 | 0.20 | 0.20 | 100 | 1011.5 |
| 20260502225129 | 52 | 134 | 5.2 | 7.0 | 0.00 | 0.20 | 0.20 | 100 | 1011.5 |
| 20260502224109 | 52 | 136 | 5.2 | 7.0 | 0.00 | 0.20 | 0.20 | 100 | 1011.5 |
| 20260502223049 | 52 | 134 | 4.3 | 6.1 | 0.01 | 0.20 | 0.20 | 100 | 1011.6 |
| 20260502222109 | 52 | 131 | 5.2 | 7.8 | 0.01 | 0.20 | 0.20 | 100 | 1011.6 |
| 20260502221049 | 52 | 124 | 5.2 | 7.8 | 0.01 | 0.20 | 0.20 | 100 | 1011.6 |
| 20260502220049 | 52 | 119 | 7.0 | 7.8 | 0.01 | 0.20 | 0.20 | 100 | 1011.6 |
| 20260502215049 | 52 | 129 | 5.2 | 7.0 | 0.01 | 0.20 | 0.20 | 100 | 1011.6 |
| 20260502214049 | 52 | 139 | 4.3 | 6.1 | 0.01 | 0.20 | 0.20 | 100 | 1011.7 |
| 20260502213109 | 52 | 148 | 5.2 | 6.1 | 0.00 | 0.19 | 0.19 | 100 | 1011.7 |
| 20260502212049 | 52 | 143 | 4.3 | 6.1 | 0.00 | 0.19 | 0.19 | 100 | 1011.7 |
| 20260502211108 | 52 | 152 | 3.5 | 5.2 | 0.00 | 0.19 | 0.19 | 100 | 1011.7 |
| 20260502210048 | 52 | 152 | 2.6 | 4.3 | 0.00 | 0.19 | 0.19 | 100 | 1011.8 |
| 20260502205049 | 52 | 150 | 3.5 | 5.2 | 0.01 | 0.19 | 0.19 | 100 | 1011.8 |
| 20260502204048 | 52 | 155 | 3.5 | 5.2 | 0.01 | 0.19 | 0.19 | 100 | 1011.8 |
| 20260502203048 | 52 | 154 | 3.5 | 5.2 | 0.02 | 0.19 | 0.19 | 100 | 1011.8 |
| 20260502202048 | 52 | 158 | 3.5 | 5.2 | 0.02 | 0.19 | 0.19 | 100 | 1011.8 |
| 20260502201048 | 52 | 156 | 5.2 | 7.8 | 0.03 | 0.19 | 0.19 | 100 | 1011.8 |
| 20260502200048 | 52 | 157 | 3.5 | 7.0 | 0.05 | 0.19 | 0.19 | 100 | 1011.8 |
| 20260502195108 | 52 | 164 | 3.5 | 7.0 | 0.05 | 0.18 | 0.18 | 100 | 1011.8 |
| 20260502194048 | 52 | 155 | 5.2 | 7.8 | 0.06 | 0.18 | 0.18 | 100 | 1011.8 |
| 20260502193048 | 52 | 151 | 5.2 | 7.8 | 0.06 | 0.17 | 0.17 | 100 | 1011.8 |
| 20260502192048 | 52 | 166 | 3.5 | 7.0 | 0.07 | 0.17 | 0.17 | 100 | 1011.8 |
| 20260502191048 | 52 | 160 | 4.3 | 7.8 | 0.07 | 0.16 | 0.16 | 100 | 1011.8 |
| 20260502190048 | 52 | 151 | 6.1 | 7.8 | 0.06 | 0.14 | 0.14 | 100 | 1011.8 |
| 20260502185048 | 52 | 160 | 3.5 | 6.1 | 0.07 | 0.14 | 0.14 | 100 | 1011.9 |
| 20260502184048 | 53 | 152 | 7.0 | 9.6 | 0.06 | 0.12 | 0.12 | 100 | 1012.0 |
| 20260502183048 | 52 | 147 | 6.1 | 7.8 | 0.06 | 0.11 | 0.11 | 100 | 1012.0 |
| 20260502182048 | 52 | 151 | 6.1 | 7.8 | 0.05 | 0.10 | 0.10 | 100 | 1012.0 |
| 20260502181108 | 53 | 151 | 6.1 | 8.7 | 0.05 | 0.09 | 0.09 | 100 | 1012.0 |
| 20260502164127 | 53 | 129 | 5.2 | 7.0 | 0.01 | 0.04 | 0.04 | 100 | 1012.3 |
| 20260502163047 | 53 | 135 | 4.3 | 7.0 | 0.02 | 0.04 | 0.04 | 100 | 1012.4 |
| 20260502162047 | 53 | 139 | 4.3 | 6.1 | 0.02 | 0.04 | 0.04 | 100 | 1012.4 |
| 20260502161108 | 53 | 133 | 3.5 | 5.2 | 0.02 | 0.04 | 0.04 | 100 | 1012.5 |
| 20260502152047 | 54 | 163 | 3.5 | 6.1 | 0.01 | 0.02 | 0.02 | 100 | 1012.9 |
| 20260502151107 | 54 | 164 | 3.5 | 5.2 | 0.00 | 0.02 | 0.02 | 100 | 1013.1 |
| 20260502140107 | 54 | 208 | 3.5 | 6.1 | 0.02 | 0.02 | 0.02 | 100 | 1013.8 |
| 20260502130107 | 54 | 194 | 4.3 | 7.0 | 0.00 | 0.00 | 0.00 | 100 | 1014.2 |
| 20260502123106 | 54 | 184 | 4.3 | 7.8 | 0.00 | 0.00 | 0.00 | 100 | 1014.6 |
| 20260502122046 | 54 | 189 | 5.2 | 8.7 | 0.00 | 0.00 | 0.00 | 100 | 1014.7 |
| 20260502121046 | 54 | 184 | 5.2 | 10.4 | 0.00 | 0.00 | 0.00 | 100 | 1014.7 |
| 20260502115046 | 54 | 187 | 5.2 | 8.7 | 0.00 | 0.00 | 0.00 | 100 | 1014.9 |
| 20260502114047 | 54 | 185 | 5.2 | 8.7 | 0.00 | 0.00 | 0.00 | 100 | 1015.0 |
| 20260502113046 | 54 | 192 | 6.1 | 9.6 | 0.00 | 0.00 | 0.00 | 100 | 1015.0 |
| 20260502112046 | 54 | 198 | 7.0 | 12.2 | 0.00 | 0.00 | 0.00 | 100 | 1015.1 |
| 20260502111106 | 54 | 198 | 7.0 | 10.4 | 0.00 | 0.00 | 0.00 | 100 | 1015.0 |
| 20260502110046 | 54 | 198 | 6.1 | 9.6 | 0.00 | 0.00 | 0.00 | 100 | 1015.0 |
| 20260502105050 | 54 | 207 | 7.0 | 12.2 | 0.00 | 0.00 | 0.00 | 100 | 1015.0 |
| 20260502104110 | 54 | 193 | 5.2 | 8.7 | 0.00 | 0.00 | 0.00 | 100 | 1014.9 |
| 20260502103050 | 54 | 173 | 4.3 | 7.0 | 0.00 | 0.00 | 0.00 | 100 | 1014.9 |
| 20260502102049 | 54 | 190 | 4.3 | 7.8 | 0.00 | 0.00 | 0.00 | 100 | 1014.8 |
| 20260502101050 | 54 | 194 | 4.3 | 9.6 | 0.00 | 0.00 | 0.00 | 100 | 1015.0 |
| 20260502091050 | 54 | 201 | 6.1 | 10.4 | 0.00 | 0.00 | 0.00 | 100 | 1015.6 |
| 20260502090109 | 54 | 200 | 6.1 | 9.6 | 0.00 | 0.00 | 0.00 | 100 | 1015.7 |
| 20260502071049 | 52 | 203 | 5.2 | 7.8 | 0.00 | 0.00 | 0.00 | 100 | 1015.9 |
| 20260502070049 | 52 | 201 | 5.2 | 9.6 | 0.00 | 0.00 | 0.00 | 100 | 1016.0 |
| 20260502065049 | 52 | 201 | 6.1 | 9.6 | 0.00 | 0.00 | 0.00 | 100 | 1015.9 |
| 20260502064109 | 52 | 202 | 5.2 | 9.6 | 0.00 | 0.00 | 0.00 | 100 | 1015.9 |
| 20260502063049 | 52 | 203 | 5.2 | 7.0 | 0.00 | 0.00 | 0.00 | 100 | 1015.9 |
| 20260502062049 | 52 | 206 | 3.5 | 6.1 | 0.00 | 0.00 | 0.00 | 100 | 1015.9 |
| 20260502061049 | 52 | 194 | 2.6 | 5.2 | 0.00 | 0.00 | 0.00 | 100 | 1015.9 |
| 20260502060049 | 52 | 199 | 1.7 | 3.5 | 0.00 | 0.00 | 0.00 | 100 | 1015.9 |
| 20260502055109 | 52 | 208 | 3.5 | 4.3 | 0.00 | 0.00 | 0.00 | 100 | 1015.9 |
| 20260502054049 | 52 | 196 | 1.7 | 2.6 | 0.00 | 0.00 | 0.00 | 100 | 1015.9 |
| 20260502053048 | 52 | 237 | 2.6 | 3.5 | 0.00 | 0.00 | 0.00 | 100 | 1015.9 |
| 20260502052049 | 52 | 210 | 2.6 | 4.3 | 0.00 | 0.00 | 0.00 | 100 | 1015.9 |
| 20260502051048 | 52 | 212 | 3.5 | 6.1 | 0.00 | 0.00 | 0.00 | 100 | 1016.0 |
| 20260502050049 | 52 | 222 | 3.5 | 5.2 | 0.00 | 0.00 | 0.00 | 100 | 1016.0 |
| 20260502045036 | 52 | 205 | 4.3 | 7.0 | 0.00 | 0.00 | 0.00 | 100 | 1016.0 |
| 20260502044036 | 52 | 203 | 3.5 | 6.1 | 0.00 | 0.00 | 0.00 | 100 | 1016.0 |
| 20260502043035 | 52 | 200 | 3.5 | 6.1 | 0.00 | 0.00 | 0.00 | 100 | 1016.1 |
| 20260502042055 | 52 | 200 | 3.5 | 6.1 | 0.00 | 0.00 | 0.00 | 100 | 1016.1 |
| 20260502041035 | 52 | 210 | 4.3 | 7.0 | 0.00 | 0.00 | 0.00 | 100 | 1016.2 |
| 20260502040036 | 52 | 210 | 3.5 | 5.2 | 0.00 | 0.00 | 0.00 | 100 | 1016.3 |
| 20260502035035 | 52 | 213 | 5.2 | 9.6 | 0.00 | 0.00 | 0.00 | 100 | 1016.3 |
| 20260502034035 | 52 | 204 | 5.2 | 8.7 | 0.00 | 0.00 | 0.00 | 100 | 1016.4 |
| 20260502033035 | 52 | 207 | 4.3 | 6.1 | 0.00 | 0.00 | 0.00 | 100 | 1016.5 |
| 20260502032035 | 52 | 194 | 3.5 | 5.2 | 0.00 | 0.00 | 0.00 | 100 | 1016.6 |
| 20260502031035 | 52 | 184 | 2.6 | 3.5 | 0.00 | 0.00 | 0.00 | 100 | 1016.6 |
| 20260502030035 | 52 | 176 | 1.7 | 3.5 | 0.00 | 0.00 | 0.00 | 100 | 1016.7 |
| 20260502025035 | 52 | 163 | 2.6 | 4.3 | 0.00 | 0.00 | 0.00 | 100 | 1016.7 |
| 20260502024035 | 52 | 194 | 2.6 | 4.3 | 0.00 | 0.00 | 0.00 | 100 | 1016.8 |
| 20260502023035 | 52 | 181 | 1.7 | 3.5 | 0.00 | 0.00 | 0.00 | 100 | 1016.8 |
| 20260502022035 | 52 | 221 | 2.6 | 4.3 | 0.00 | 0.00 | 0.00 | 100 | 1016.9 |
| 20260502021035 | 52 | 239 | 2.6 | 3.5 | 0.00 | 0.00 | 0.00 | 100 | 1017.1 |
| 20260502020035 | 52 | 220 | 2.6 | 5.2 | 0.00 | 0.00 | 0.00 | 100 | 1017.3 |
| 20260502015035 | 52 | 213 | 4.3 | 7.8 | 0.00 | 0.00 | 0.00 | 100 | 1017.5 |
| 20260502014035 | 52 | 211 | 4.3 | 8.7 | 0.00 | 0.00 | 0.00 | 100 | 1017.6 |
| 20260502013054 | 52 | 210 | 6.1 | 9.6 | 0.00 | 0.00 | 0.00 | 100 | 1017.7 |
| 20260502012034 | 52 | 213 | 6.1 | 8.7 | 0.00 | 0.00 | 0.00 | 100 | 1017.8 |
| 20260502011034 | 52 | 220 | 6.1 | 9.6 | 0.00 | 0.00 | 0.00 | 100 | 1017.9 |